| time (UTC) | temp F | wind direction | speed knots | gust knots | rain 1hr in | rain 24hr in | rain mn in | humidity % | barometer mb |
| 20260905163404 | 76 | 273 | 1.7 | 8.7 | 0.00 | 0.00 | 0.00 | 49 | 1008.3 |
| 20260905162904 | 76 | 39 | 2.6 | 8.7 | 0.00 | 0.00 | 0.00 | 51 | 1008.3 |
| 20260905162404 | 75 | 291 | 1.7 | 7.8 | 0.00 | 0.00 | 0.00 | 51 | 1008.3 |
| 20260905160903 | 75 | 241 | 1.7 | 6.1 | 0.00 | 0.00 | 0.00 | 51 | 1008.2 |
| 20260905160404 | 74 | 232 | 1.7 | 6.1 | 0.00 | 0.00 | 0.00 | 53 | 1008.2 |
| 20260905155904 | 74 | 251 | 1.7 | 4.3 | 0.00 | 0.00 | 0.00 | 55 | 1008.2 |
| 20260905155404 | 74 | 178 | 1.7 | 4.3 | 0.00 | 0.00 | 0.00 | 57 | 1008.2 |
| 20260905152904 | 71 | 10 | 1.7 | 2.6 | 0.00 | 0.00 | 0.00 | 61 | 1008.3 |
| 20260905151904 | 70 | 258 | 1.7 | 4.3 | 0.00 | 0.00 | 0.00 | 65 | 1008.3 |
| 20260905145904 | 68 | 305 | 0.9 | 2.6 | 0.00 | 0.00 | 0.00 | 69 | 1008.4 |
| 20260905145404 | 68 | 222 | 0.0 | 2.6 | 0.00 | 0.00 | 0.00 | 69 | 1008.6 |
| 20260905144904 | 67 | 303 | 0.9 | 2.6 | 0.00 | 0.00 | 0.00 | 70 | 1008.6 |
| 20260905144404 | 67 | 244 | 0.0 | 2.6 | 0.00 | 0.00 | 0.00 | 70 | 1008.7 |
| 20260905142904 | 65 | 180 | 0.0 | 1.7 | 0.00 | 0.00 | 0.00 | 74 | 1008.8 |
| 20260905141904 | 64 | 153 | 0.0 | 0.9 | 0.00 | 0.00 | 0.00 | 76 | 1008.8 |
| 20260905140904 | 62 | 153 | 0.0 | 2.6 | 0.00 | 0.00 | 0.00 | 78 | 1009.0 |
| 20260905135904 | 60 | 139 | 0.9 | 2.6 | 0.00 | 0.00 | 0.00 | 80 | 1008.8 |
| 20260905134904 | 58 | 139 | 0.9 | 1.7 | 0.00 | 0.00 | 0.00 | 82 | 1008.8 |
| 20260905132404 | 56 | 0 | 0.0 | 0.0 | 0.00 | 0.00 | 0.00 | 82 | 1008.8 |
| 20260905131904 | 56 | 0 | 0.0 | 0.0 | 0.00 | 0.00 | 0.00 | 82 | 1008.8 |
| 20260905131404 | 56 | 0 | 0.0 | 0.0 | 0.00 | 0.00 | 0.00 | 82 | 1008.6 |
| 20260905130904 | 56 | 0 | 0.0 | 0.0 | 0.00 | 0.00 | 0.00 | 81 | 1008.5 |
| 20260905125904 | 57 | 0 | 0.0 | 0.0 | 0.00 | 0.00 | 0.00 | 81 | 1008.2 |
| 20260905124904 | 57 | 0 | 0.0 | 0.0 | 0.00 | 0.00 | 0.00 | 80 | 1008.0 |
| 20260905123904 | 58 | 0 | 0.0 | 0.0 | 0.00 | 0.00 | 0.00 | 79 | 1007.8 |
| 20260905122904 | 58 | 0 | 0.0 | 0.0 | 0.00 | 0.00 | 0.00 | 79 | 1007.6 |
| 20260905122404 | 59 | 0 | 0.0 | 0.0 | 0.00 | 0.00 | 0.00 | 78 | 1007.6 |
| 20260905121904 | 59 | 0 | 0.0 | 0.0 | 0.00 | 0.00 | 0.00 | 78 | 1007.5 |
| 20260905120404 | 60 | 140 | 0.0 | 0.0 | 0.00 | 0.00 | 0.00 | 77 | 1007.4 |
| 20260905115904 | 60 | 139 | 0.0 | 0.0 | 0.00 | 0.00 | 0.00 | 76 | 1007.4 |
| 20260905113903 | 61 | 139 | 0.0 | 0.9 | 0.00 | 0.01 | 0.00 | 76 | 1007.3 |
| 20260905112404 | 61 | 139 | 0.0 | 1.7 | 0.00 | 0.01 | 0.00 | 77 | 1007.3 |
| 20260905110904 | 61 | 139 | 0.0 | 0.0 | 0.00 | 0.01 | 0.00 | 78 | 1007.3 |
| 20260905110403 | 61 | 139 | 0.0 | 0.0 | 0.00 | 0.01 | 0.00 | 78 | 1007.3 |
| 20260905104403 | 61 | 139 | 0.0 | 0.0 | 0.00 | 0.01 | 0.00 | 77 | 1007.2 |
| 20260905103904 | 61 | 138 | 0.0 | 0.0 | 0.00 | 0.01 | 0.00 | 77 | 1007.1 |
| 20260905103403 | 61 | 136 | 0.0 | 0.0 | 0.00 | 0.01 | 0.00 | 77 | 1007.2 |
| 20260905102903 | 61 | 86 | 0.0 | 0.0 | 0.00 | 0.01 | 0.00 | 77 | 1007.2 |
| 20260905101404 | 60 | 139 | 0.0 | 0.0 | 0.00 | 0.01 | 0.00 | 77 | 1007.1 |
| 20260905100904 | 60 | 129 | 0.0 | 0.0 | 0.00 | 0.01 | 0.00 | 77 | 1007.0 |
| 20260905095404 | 60 | 130 | 0.0 | 0.9 | 0.00 | 0.01 | 0.00 | 77 | 1006.8 |
| 20260905094403 | 60 | 132 | 0.0 | 0.0 | 0.00 | 0.01 | 0.00 | 77 | 1006.8 |
| 20260905092903 | 60 | 139 | 0.0 | 0.0 | 0.00 | 0.01 | 0.00 | 76 | 1006.8 |
| 20260905092404 | 60 | 90 | 0.0 | 0.0 | 0.00 | 0.01 | 0.00 | 75 | 1006.8 |
| 20260905091404 | 61 | 69 | 0.0 | 0.0 | 0.00 | 0.01 | 0.00 | 74 | 1007.0 |
| 20260905090403 | 61 | 139 | 0.0 | 0.0 | 0.00 | 0.01 | 0.00 | 73 | 1006.9 |
| 20260905085404 | 62 | 139 | 0.0 | 0.0 | 0.00 | 0.01 | 0.00 | 72 | 1006.8 |
| 20260905084904 | 62 | 139 | 0.0 | 0.0 | 0.00 | 0.01 | 0.00 | 72 | 1006.8 |
| 20260905081904 | 62 | 139 | 0.0 | 0.0 | 0.00 | 0.01 | 0.00 | 70 | 1006.8 |
| 20260905081404 | 63 | 139 | 0.0 | 0.0 | 0.00 | 0.01 | 0.00 | 70 | 1006.8 |
| 20260905080904 | 63 | 139 | 0.0 | 0.0 | 0.00 | 0.01 | 0.00 | 69 | 1006.9 |
| 20260905080403 | 63 | 139 | 0.0 | 0.0 | 0.00 | 0.01 | 0.00 | 68 | 1006.9 |
| 20260905075404 | 63 | 139 | 0.0 | 1.7 | 0.00 | 0.01 | 0.00 | 68 | 1006.9 |
| 20260905073404 | 64 | 139 | 0.0 | 0.9 | 0.00 | 0.01 | 0.00 | 66 | 1007.0 |
| 20260905072904 | 64 | 139 | 0.0 | 2.6 | 0.00 | 0.01 | 0.00 | 66 | 1007.0 |
| 20260905072404 | 64 | 139 | 0.9 | 2.6 | 0.00 | 0.01 | 0.00 | 66 | 1007.0 |
| 20260905071404 | 64 | 139 | 0.0 | 0.0 | 0.00 | 0.01 | 0.00 | 66 | 1007.0 |
| 20260905065404 | 63 | 139 | 0.0 | 1.7 | 0.00 | 0.01 | 0.00 | 68 | 1007.0 |
| 20260905064404 | 63 | 139 | 0.0 | 0.9 | 0.00 | 0.01 | 0.00 | 68 | 1007.0 |
| 20260905063904 | 63 | 139 | 0.0 | 1.7 | 0.00 | 0.01 | 0.00 | 68 | 1007.0 |
| 20260905063404 | 64 | 139 | 0.9 | 1.7 | 0.00 | 0.01 | 0.00 | 67 | 1006.9 |
| 20260905062903 | 64 | 139 | 0.0 | 0.0 | 0.00 | 0.01 | 0.00 | 67 | 1007.0 |
| 20260905061904 | 64 | 139 | 0.0 | 0.9 | 0.00 | 0.01 | 0.00 | 65 | 1007.0 |
| 20260905055904 | 65 | 139 | 0.0 | 0.0 | 0.00 | 0.01 | 0.01 | 64 | 1006.8 |
| 20260905054904 | 66 | 139 | 0.0 | 0.0 | 0.00 | 0.01 | 0.01 | 63 | 1006.7 |
| 20260905053404 | 66 | 139 | 0.9 | 2.6 | 0.00 | 0.01 | 0.01 | 62 | 1006.7 |
| 20260905051904 | 67 | 145 | 1.7 | 2.6 | 0.00 | 0.01 | 0.01 | 61 | 1006.7 |
| 20260905051404 | 67 | 144 | 0.9 | 2.6 | 0.00 | 0.01 | 0.01 | 61 | 1006.8 |
| 20260905050903 | 67 | 140 | 1.7 | 2.6 | 0.00 | 0.01 | 0.01 | 60 | 1006.9 |
| 20260905050404 | 67 | 145 | 1.7 | 4.3 | 0.00 | 0.01 | 0.01 | 60 | 1006.9 |
| 20260905045904 | 68 | 139 | 2.6 | 4.3 | 0.00 | 0.01 | 0.01 | 60 | 1007.0 |
| 20260905044903 | 68 | 144 | 2.6 | 4.3 | 0.00 | 0.01 | 0.01 | 59 | 1007.1 |
| 20260905043904 | 69 | 138 | 0.9 | 2.6 | 0.00 | 0.01 | 0.01 | 58 | 1007.2 |
| 20260905042903 | 69 | 138 | 0.0 | 2.6 | 0.00 | 0.01 | 0.01 | 57 | 1007.3 |
| 20260905041903 | 70 | 148 | 1.7 | 2.6 | 0.00 | 0.01 | 0.01 | 56 | 1007.4 |
| 20260905041404 | 70 | 123 | 0.0 | 2.6 | 0.00 | 0.01 | 0.01 | 56 | 1007.5 |
| 20260905035904 | 71 | 148 | 0.0 | 2.6 | 0.00 | 0.01 | 0.01 | 55 | 1007.6 |
| 20260905034904 | 71 | 148 | 1.7 | 4.3 | 0.00 | 0.01 | 0.01 | 54 | 1007.7 |
| 20260905033904 | 71 | 138 | 1.7 | 5.2 | 0.00 | 0.01 | 0.01 | 55 | 1007.7 |
| 20260905032403 | 71 | 148 | 1.7 | 4.3 | 0.00 | 0.01 | 0.01 | 55 | 1007.7 |
| 20260905031404 | 71 | 148 | 1.7 | 5.2 | 0.00 | 0.01 | 0.01 | 55 | 1007.6 |
| 20260905030404 | 71 | 155 | 1.7 | 4.3 | 0.00 | 0.01 | 0.01 | 55 | 1007.4 |
| 20260905025904 | 71 | 143 | 0.9 | 4.3 | 0.00 | 0.01 | 0.01 | 56 | 1007.3 |
| 20260905025404 | 71 | 151 | 1.7 | 6.1 | 0.00 | 0.01 | 0.01 | 56 | 1007.2 |
| 20260905024904 | 71 | 134 | 3.5 | 6.1 | 0.00 | 0.01 | 0.01 | 56 | 1007.0 |
| 20260905024404 | 71 | 145 | 1.7 | 5.2 | 0.00 | 0.01 | 0.01 | 56 | 1006.9 |
| 20260905023903 | 71 | 141 | 1.7 | 7.8 | 0.00 | 0.01 | 0.01 | 56 | 1006.8 |
| 20260905022404 | 71 | 141 | 5.2 | 12.2 | 0.00 | 0.01 | 0.01 | 56 | 1006.5 |
| 20260905021404 | 71 | 139 | 3.5 | 10.4 | 0.00 | 0.01 | 0.01 | 56 | 1006.4 |
| 20260905020904 | 71 | 140 | 3.5 | 10.4 | 0.00 | 0.01 | 0.01 | 56 | 1006.3 |
| 20260905015904 | 72 | 130 | 5.2 | 10.4 | 0.00 | 0.01 | 0.01 | 56 | 1006.3 |
| 20260905014404 | 71 | 140 | 6.1 | 12.2 | 0.00 | 0.01 | 0.01 | 56 | 1006.4 |
| 20260905012404 | 72 | 137 | 7.0 | 17.4 | 0.00 | 0.01 | 0.01 | 56 | 1006.1 |
| 20260905011404 | 73 | 147 | 5.2 | 17.4 | 0.00 | 0.01 | 0.01 | 55 | 1006.1 |
| 20260905010904 | 74 | 160 | 6.1 | 21.7 | 0.00 | 0.01 | 0.01 | 53 | 1006.0 |
| 20260905010404 | 76 | 143 | 10.4 | 21.7 | 0.00 | 0.01 | 0.01 | 49 | 1006.0 |
| 20260905005903 | 78 | 161 | 4.3 | 7.0 | 0.00 | 0.01 | 0.01 | 41 | 1005.8 |
| 20260905004903 | 79 | 192 | 0.9 | 6.1 | 0.00 | 0.01 | 0.01 | 38 | 1005.2 |
| 20260905004403 | 79 | 171 | 1.7 | 6.1 | 0.00 | 0.01 | 0.01 | 38 | 1005.1 |
| 20260905003904 | 79 | 170 | 0.9 | 5.2 | 0.00 | 0.01 | 0.01 | 38 | 1005.0 |
| 20260905002904 | 79 | 239 | 1.7 | 6.1 | 0.00 | 0.01 | 0.01 | 38 | 1004.9 |
| 20260905002404 | 80 | 150 | 2.6 | 6.1 | 0.00 | 0.01 | 0.01 | 38 | 1004.9 |
| 20260905001904 | 80 | 179 | 0.9 | 2.6 | 0.00 | 0.01 | 0.01 | 38 | 1004.8 |
| 20260905001404 | 80 | 185 | 0.9 | 2.6 | 0.00 | 0.01 | 0.01 | 38 | 1004.8 |
| 20260905000404 | 80 | 156 | 1.7 | 7.8 | 0.00 | 0.01 | 0.01 | 37 | 1004.7 |
| 20260904234404 | 81 | 167 | 2.6 | 6.1 | 0.00 | 0.01 | 0.01 | 37 | 1004.5 |
| 20260904233904 | 81 | 183 | 1.7 | 6.1 | 0.00 | 0.01 | 0.01 | 37 | 1004.5 |
| 20260904232904 | 81 | 161 | 1.7 | 6.1 | 0.00 | 0.01 | 0.01 | 36 | 1004.5 |
| 20260904230903 | 82 | 175 | 2.6 | 7.0 | 0.00 | 0.01 | 0.01 | 35 | 1004.5 |
| 20260904230404 | 82 | 162 | 1.7 | 6.1 | 0.00 | 0.01 | 0.01 | 35 | 1004.3 |
| 20260904225905 | 82 | 190 | 1.7 | 7.0 | 0.00 | 0.01 | 0.01 | 34 | 1004.3 |
| 20260904225404 | 82 | 164 | 1.7 | 7.0 | 0.00 | 0.01 | 0.01 | 34 | 1004.3 |
| 20260904224405 | 83 | 216 | 1.7 | 7.8 | 0.00 | 0.01 | 0.01 | 32 | 1004.3 |
| 20260904223905 | 84 | 136 | 1.7 | 7.8 | 0.00 | 0.01 | 0.01 | 31 | 1004.2 |
| 20260904222905 | 85 | 175 | 1.7 | 6.1 | 0.00 | 0.01 | 0.01 | 32 | 1004.1 |
| 20260904222405 | 85 | 248 | 2.6 | 6.1 | 0.00 | 0.01 | 0.01 | 31 | 1004.1 |
| 20260904221905 | 85 | 217 | 2.6 | 6.1 | 0.00 | 0.01 | 0.01 | 32 | 1004.1 |
| 20260904220905 | 85 | 199 | 2.6 | 11.3 | 0.00 | 0.01 | 0.01 | 31 | 1004.1 |
| 20260904215405 | 84 | 239 | 1.7 | 10.4 | 0.00 | 0.01 | 0.01 | 34 | 1004.1 |
| 20260904214906 | 84 | 157 | 1.7 | 10.4 | 0.00 | 0.01 | 0.01 | 33 | 1004.2 |
| 20260904214404 | 84 | 133 | 3.5 | 10.4 | 0.00 | 0.01 | 0.01 | 33 | 1004.4 |
| 20260904212405 | 82 | 216 | 2.6 | 5.2 | 0.00 | 0.01 | 0.01 | 36 | 1004.4 |
| 20260904210905 | 82 | 130 | 1.7 | 2.6 | 0.00 | 0.01 | 0.01 | 37 | 1004.7 |
| 20260904204905 | 82 | 151 | 0.9 | 2.6 | 0.00 | 0.01 | 0.01 | 37 | 1005.1 |
| 20260904200405 | 80 | 27 | 1.7 | 6.1 | 0.00 | 0.01 | 0.01 | 40 | 1006.0 |
| 20260904195405 | 81 | 113 | 1.7 | 4.3 | 0.00 | 0.01 | 0.01 | 41 | 1006.2 |
| 20260904194405 | 79 | 57 | 0.9 | 6.1 | 0.00 | 0.01 | 0.01 | 43 | 1006.4 |
| 20260904193905 | 79 | 291 | 2.6 | 6.1 | 0.00 | 0.01 | 0.01 | 43 | 1006.5 |
| 20260904193405 | 80 | 131 | 2.6 | 4.3 | 0.00 | 0.01 | 0.01 | 42 | 1006.5 |
| 20260904192405 | 79 | 191 | 1.7 | 4.3 | 0.00 | 0.01 | 0.01 | 45 | 1006.6 |
| 20260904191405 | 78 | 289 | 1.7 | 2.6 | 0.00 | 0.01 | 0.01 | 45 | 1006.8 |
| 20260904190905 | 78 | 281 | 1.7 | 2.6 | 0.00 | 0.01 | 0.01 | 43 | 1006.9 |
| 20260904185905 | 77 | 134 | 0.9 | 6.1 | 0.00 | 0.01 | 0.01 | 44 | 1007.1 |
| 20260904185405 | 78 | 134 | 2.6 | 6.1 | 0.00 | 0.01 | 0.01 | 43 | 1007.2 |
| 20260904184405 | 77 | 306 | 0.9 | 2.6 | 0.00 | 0.01 | 0.01 | 45 | 1007.3 |
| 20260904183905 | 77 | 245 | 0.9 | 2.6 | 0.00 | 0.01 | 0.01 | 47 | 1007.3 |
| 20260904182405 | 76 | 200 | 0.9 | 2.6 | 0.00 | 0.01 | 0.01 | 46 | 1007.4 |
| 20260904181405 | 76 | 298 | 0.9 | 2.6 | 0.00 | 0.01 | 0.01 | 46 | 1007.5 |
| 20260904175405 | 75 | 121 | 0.9 | 2.6 | 0.00 | 0.01 | 0.01 | 49 | 1007.8 |
| 20260904174405 | 74 | 194 | 0.9 | 2.6 | 0.00 | 0.01 | 0.01 | 49 | 1007.8 |
| 20260904173404 | 74 | 243 | 0.9 | 2.6 | 0.00 | 0.01 | 0.01 | 49 | 1007.6 |
| 20260904172905 | 74 | 248 | 0.9 | 2.6 | 0.00 | 0.01 | 0.01 | 49 | 1007.6 |
| 20260904172405 | 74 | 233 | 0.9 | 2.6 | 0.00 | 0.01 | 0.01 | 50 | 1007.6 |
| 20260904171405 | 74 | 173 | 0.9 | 2.6 | 0.00 | 0.01 | 0.01 | 50 | 1007.5 |
| 20260904170405 | 74 | 218 | 0.9 | 2.6 | 0.00 | 0.01 | 0.01 | 49 | 1007.4 |
| 20260904164904 | 74 | 40 | 0.9 | 2.6 | 0.00 | 0.01 | 0.01 | 51 | 1007.3 |
| 20260904163905 | 74 | 19 | 0.9 | 1.7 | 0.00 | 0.01 | 0.01 | 52 | 1007.4 |